Weather History for KBML - September, 2012

Change the Weather History Date:

Sunday, September 30, 2012

  Actual Average Record
Temperature  
Mean Temperature 53 °F -  
Max Temperature 55 °F 60 °F 75 °F (2010)
Min Temperature 51 °F 32 °F 23 °F (2000)
Degree Days  
Heating Degree Days 12    
Growing Degree Days 3 (Base 50)    
Moisture  
Dew Point 51 °F    
Average Humidity 92    
Maximum Humidity 100    
Minimum Humidity 87    
Precipitation  
Precipitation 0.40 in - - ()
Sea Level Pressure  
Sea Level Pressure 29.77 in    
Wind  
Wind Speed 1 mph (NNW)    
Max Wind Speed 8 mph    
Max Gust Speed -    
Visibility 8 miles    
Events Rain    
Averages and records for this station are not official NWS values.
T = Trace of Precipitation, MM = Missing Value Source: NWS Daily Summary

Daily Weather History Graph

Daily Weather History Graph

Search for Another Location

Airport or City:

Trip Planner

Search our weather history database for the weather conditions in past years. The results will help you decide how hot, cold, wet, or windy it might be!

Date:

Astronomy

Sep. 30, 2012 Rise Set
Actual Time 6:41 AM EDT 6:26 PM EDT
Civil Twilight 6:12 AM EDT 6:55 PM EDT
Nautical Twilight 5:39 AM EDT 7:29 PM EDT
Astronomical Twilight 5:04 AM EDT 8:03 PM EDT
Moon 6:24 PM EDT (9/30) 7:12 AM EDT (9/30)
Length of Visible Light 12h 42m
Length of Day
11h 44m
Full, 100% of the Moon is Illuminated
Sep 30
Full
Oct 8
Last Quarter
Oct 15
New
Oct 21
First Quarter
Oct 29
Full

Hourly Weather History & Observations

Time (EDT) Temp. Dew Point Humidity Pressure Visibility Wind Dir Wind Speed Gust Speed Precip Events Conditions
12:52 AM 52.0 °F 50.0 °F 93% 29.94 in 10.0 mi Calm Calm - 0.01 in   Overcast
1:45 AM 51.8 °F 50.0 °F 94% 29.93 in 10.0 mi Calm Calm - N/A   Overcast
1:52 AM 52.0 °F 50.0 °F 93% 29.94 in 9.0 mi Calm Calm - N/A   Overcast
2:42 AM 51.8 °F 50.0 °F 94% 29.91 in 10.0 mi North 4.6 mph - N/A   Overcast
2:49 AM 51.8 °F 50.0 °F 94% 29.90 in 10.0 mi NNW 3.5 mph - N/A   Overcast
2:52 AM 51.1 °F 50.0 °F 96% 29.92 in 10.0 mi NNW 3.5 mph - N/A   Overcast
3:52 AM 52.0 °F 48.9 °F 89% 29.92 in 10.0 mi Calm Calm - N/A   Overcast
4:28 AM 51.8 °F 48.2 °F 88% 29.90 in 7.0 mi NNW 3.5 mph - 0.00 in   Overcast
4:52 AM 51.1 °F 48.9 °F 92% 29.92 in 10.0 mi Calm Calm - 0.00 in   Overcast
5:33 AM 51.8 °F 48.2 °F 88% 29.90 in 8.0 mi North 3.5 mph - N/A   Overcast
5:39 AM 51.8 °F 48.2 °F 88% 29.90 in 10.0 mi NNW 3.5 mph - N/A   Overcast
5:52 AM 51.1 °F 48.9 °F 92% 29.91 in 10.0 mi NW 3.5 mph - N/A   Overcast
6:19 AM 51.8 °F 48.2 °F 88% 29.89 in 10.0 mi NW 3.5 mph - N/A   Overcast
6:32 AM 51.8 °F 48.2 °F 88% 29.89 in 10.0 mi Calm Calm - N/A   Overcast
6:52 AM 51.1 °F 48.9 °F 92% 29.90 in 10.0 mi North 3.5 mph - N/A   Overcast
7:15 AM 51.8 °F 48.2 °F 88% 29.89 in 10.0 mi Calm Calm - N/A   Overcast
7:52 AM 52.0 °F 48.9 °F 89% 29.90 in 10.0 mi Calm Calm - N/A   Overcast
8:42 AM 51.8 °F 50.0 °F 94% 29.89 in 10.0 mi Variable 3.5 mph - N/A   Overcast
8:52 AM 52.0 °F 50.0 °F 93% 29.90 in 8.0 mi NNW 3.5 mph - N/A   Overcast
9:11 AM 51.8 °F 50.0 °F 94% 29.88 in 4.0 mi Calm Calm - N/A   Overcast
9:29 AM 53.6 °F 50.0 °F 88% 29.88 in 7.0 mi Calm Calm - N/A   Overcast
9:52 AM 53.1 °F 50.0 °F 89% 29.89 in 10.0 mi Calm Calm - N/A   Overcast
10:29 AM 53.6 °F 51.8 °F 94% 29.85 in 4.0 mi Calm Calm - N/A   Overcast
10:52 AM 53.1 °F 51.1 °F 93% 29.86 in 4.0 mi Calm Calm - N/A   Overcast
11:52 AM 54.0 °F 52.0 °F 93% 29.83 in 4.0 mi Calm Calm - 0.04 in Rain Rain
12:52 PM 54.0 °F 52.0 °F 93% 29.81 in 3.0 mi Calm Calm - 0.09 in Rain Rain
1:31 PM 53.6 °F 51.8 °F 94% 29.78 in 4.0 mi Calm Calm - 0.06 in Rain Light Rain
1:52 PM 54.0 °F 52.0 °F 93% 29.78 in 4.0 mi Calm Calm - 0.08 in Rain Light Rain
2:14 PM 55.4 °F 51.8 °F 88% 29.74 in 10.0 mi NNW 8.1 mph - 0.01 in Rain Light Rain
2:27 PM 55.4 °F 53.6 °F 94% 29.74 in 10.0 mi Calm Calm - 0.01 in Rain Light Rain
2:52 PM 55.9 °F 53.1 °F 90% 29.73 in 10.0 mi Calm Calm - 0.01 in Rain Light Rain
3:08 PM 55.4 °F 53.6 °F 94% 29.72 in 10.0 mi Calm Calm - 0.00 in Rain Light Rain
3:39 PM 55.4 °F 51.8 °F 88% 29.71 in 7.0 mi Calm Calm - 0.01 in Rain Light Rain
3:52 PM 55.9 °F 52.0 °F 87% 29.71 in 5.0 mi Calm Calm - 0.02 in Rain Light Rain
4:16 PM 55.4 °F 51.8 °F 88% 29.68 in 5.0 mi Calm Calm - 0.01 in Rain Light Rain
4:52 PM 55.0 °F 53.1 °F 93% 29.68 in 9.0 mi Calm Calm - 0.05 in Rain Light Rain
5:31 PM 55.4 °F 53.6 °F 94% 29.66 in 3.0 mi Calm Calm - 0.01 in Rain Light Rain
5:52 PM 55.0 °F 53.1 °F 93% 29.67 in 3.0 mi Calm Calm - 0.02 in Rain Light Rain
6:07 PM 55.4 °F 53.6 °F 94% 29.65 in 9.0 mi Calm Calm - 0.00 in   Overcast
6:29 PM 55.4 °F 53.6 °F 94% 29.65 in 10.0 mi Calm Calm - 0.00 in   Overcast
6:44 PM 55.4 °F 53.6 °F 94% 29.64 in 10.0 mi Calm Calm - 0.00 in   Overcast
6:52 PM 54.0 °F 53.1 °F 97% 29.65 in 10.0 mi Calm Calm - 0.00 in   Overcast
7:11 PM 53.6 °F 53.6 °F 100% 29.64 in 10.0 mi Calm Calm - N/A   Overcast
7:22 PM 53.6 °F 51.8 °F 94% 29.63 in 10.0 mi Calm Calm - N/A   Overcast
7:52 PM 54.0 °F 52.0 °F 93% 29.65 in 10.0 mi Calm Calm - N/A   Overcast
8:52 PM 53.1 °F 52.0 °F 96% 29.65 in 5.0 mi Calm Calm - 0.02 in Rain Light Rain
9:09 PM 53.6 °F 51.8 °F 94% 29.63 in 2.0 mi Calm Calm - 0.03 in Rain Rain
9:21 PM 53.6 °F 51.8 °F 94% 29.63 in 5.0 mi Calm Calm - 0.05 in Rain Light Rain
9:34 PM 53.6 °F 51.8 °F 94% 29.62 in 8.0 mi Calm Calm - 0.05 in Rain Light Rain
9:52 PM 53.1 °F 51.1 °F 93% 29.62 in 8.0 mi Calm Calm - 0.06 in Rain Light Rain
10:08 PM 53.6 °F 51.8 °F 94% 29.61 in 10.0 mi Calm Calm - 0.00 in Rain Light Rain
10:23 PM 53.6 °F 51.8 °F 94% 29.61 in 6.0 mi Calm Calm - 0.00 in Rain Light Rain
10:42 PM 53.6 °F 51.8 °F 94% 29.61 in 8.0 mi Calm Calm - 0.00 in   Overcast
10:52 PM 53.1 °F 50.0 °F 89% 29.62 in 10.0 mi SSW 4.6 mph - 0.00 in   Overcast
11:52 PM 52.0 °F 48.9 °F 89% 29.62 in 10.0 mi South 3.5 mph - N/A   Overcast